Location: The C. Gantt Observatory
(33.6981°N, 81.6836°W)
Time: 12:08:56
(UTC-05:00)

Iridium 30 - Visible Passes

Search period start: 27 November 2014 00:00
Search period end: 07 December 2014 00:00
Orbit: 776 x 779 km, 86.4° (Epoch: 26 November)

Date Brightness Start Highest point End Pass type
(mag) Time Alt. Az. Time Alt. Az. Time Alt. Az.
27 Nov 8.1 03:48:46 17° ENE 03:48:59 17° ENE 03:52:14 10° ESE visible
27 Nov 5.7 05:29:21 43° WNW 05:29:52 44° W 05:34:46 10° SSW visible
27 Nov 8.2 18:18:59 10° SW 18:22:37 19° W 18:26:16 10° NW visible
28 Nov 5.7 04:57:25 60° S 04:57:25 60° S 05:01:38 10° S visible
28 Nov 7.2 17:44:09 10° SSW 17:48:54 36° W 17:53:42 10° NNW visible
29 Nov 7.2 04:25:20 27° SE 04:25:20 27° SE 04:27:53 10° SSE visible
29 Nov 7.5 06:05:53 10° WSW 06:05:53 10° WSW 06:06:02 10° WSW visible
30 Nov 8.3 03:53:06 11° SE 03:53:06 11° SE 03:53:25 10° SE visible
30 Nov 7.5 05:33:39 13° SW 05:33:39 13° SW 05:34:18 10° SW visible
30 Nov 8.5 18:20:43 10° WSW 18:22:54 13° WNW 18:25:05 10° NW visible
01 Dec 7.8 05:01:19 11° SSW 05:01:19 11° SSW 05:01:34 10° SSW visible
01 Dec 7.9 17:44:54 10° SW 17:49:06 25° W 17:53:19 10° NNW visible
04 Dec 8.2 17:46:05 10° WSW 17:49:20 17° WNW 17:52:35 10° NW visible
